Weather History for Piarco, Trinidad And Tobago

Change the Weather History Date:

Monday, January 28, 2013

  Actual Average Record
Temperature  
Mean Temperature 80 °F -  
Max Temperature 87 °F 85 °F 102 °F (1998)
Min Temperature 72 °F 70 °F 68 °F (1997)
Cooling Degree Days 14    
Growing Degree Days 30 (Base 50)    
Moisture  
Dew Point 71 °F    
Average Humidity 77    
Maximum Humidity 94    
Minimum Humidity 44    
Precipitation  
Precipitation 0.00 in 0.06 in - ()
Sea Level Pressure  
Sea Level Pressure 30.00 in    
Wind  
Wind Speed 3 mph ()    
Max Wind Speed 17 mph    
Max Gust Speed -    
Visibility 7.6 miles    
Events Rain    
Averages and records for this station are not official NWS values.
T = Trace of Precipitation, MM = Missing Value Source: Averaged Metar Reports

Daily Weather History Graph

Daily Weather History Graph

Search for Another Location

Airport:

Trip Planner

Search our weather history database for the weather conditions in past years. The results will help you decide how hot, cold, wet, or windy it might be!

Date:

Astronomy

Jan. 28, 2013 Rise Set
Actual Time 6:28 AM AST 6:08 PM AST
Civil Twilight 6:06 AM AST 6:30 PM AST
Nautical Twilight 5:41 AM AST 6:55 PM AST
Astronomical Twilight 5:15 AM AST 7:21 PM AST
Moon 7:28 PM AST 7:16 AM AST
Length of Visible Light 12h 23m
Length of Day
11h 39m
Full, 98% of the Moon is Illuminated
Jan 28
Full
Feb 3
Last Quarter
Feb 10
New
Feb 17
First Quarter
Feb 25
Full

Hourly Weather History & Observations

Time (AST) Temp. Heat Index Dew Point Humidity Pressure Visibility Wind Dir Wind Speed Gust Speed Precip Events Conditions
12:00 AM 77.0 °F - 71.6 °F 83% 30.01 in 6.2 mi Calm Calm - N/A   Scattered Clouds
1:00 AM 75.2 °F - 73.4 °F 94% 29.98 in 6.2 mi Calm Calm - N/A   Partly Cloudy
2:00 AM 74 °F - 72 °F 91% 29.98 in 14 mi Calm Calm - -   Partly Cloudy
2:00 AM 75.2 °F - 71.6 °F 89% 29.98 in 6.2 mi Calm Calm - N/A   Scattered Clouds
3:00 AM 73.4 °F - 71.6 °F 94% 29.95 in 6.2 mi Calm Calm - N/A   Scattered Clouds
4:00 AM 75.2 °F - 71.6 °F 89% 29.95 in 6.2 mi Calm Calm - N/A   Scattered Clouds
5:00 AM 74 °F - 70 °F 85% 29.99 in 15 mi Calm Calm - -   Scattered Clouds
5:00 AM 73.4 °F - 69.8 °F 88% 29.98 in 6.2 mi Calm Calm - N/A   Scattered Clouds
6:00 AM 73.4 °F - 69.8 °F 88% 30.01 in 6.2 mi Calm Calm - N/A   Scattered Clouds
7:00 AM 75.2 °F - 69.8 °F 83% 30.01 in 6.2 mi ESE 9.2 mph - N/A   Scattered Clouds
8:00 AM 78 °F - 70 °F 71% 30.04 in 11 mi ENE 6.9 mph - -   Mostly Cloudy
8:00 AM 78.8 °F - 69.8 °F 74% 30.04 in 6.2 mi ENE 6.9 mph - N/A   Mostly Cloudy
9:00 AM 80.6 °F 83.9 °F 69.8 °F 70% 30.04 in 6.2 mi ESE 6.9 mph - N/A   Mostly Cloudy
10:00 AM 80.6 °F 85.4 °F 73.4 °F 79% 30.06 in 6.2 mi East 8.1 mph - N/A Rain Light Rain Showers
12:00 PM 80.6 °F 82.7 °F 66.2 °F 61% 30.04 in 6.2 mi East 17.3 mph - N/A Rain Light Rain Showers
1:00 PM 84.2 °F 90.9 °F 73.4 °F 70% 30.01 in 6.2 mi ESE 11.5 mph - N/A   Mostly Cloudy
2:00 PM 87 °F - 68 °F 44% 29.99 in 11 mi East 13.8 mph - -   Partly Cloudy
2:00 PM 87.8 °F 91.4 °F 68.0 °F 52% 29.98 in 6.2 mi East 13.8 mph - N/A   Mostly Cloudy
3:00 PM 86.0 °F 89.4 °F 68.0 °F 55% 29.95 in 6.2 mi East 16.1 mph - N/A   Mostly Cloudy
4:00 PM 84.2 °F 88.4 °F 69.8 °F 62% 29.95 in 6.2 mi ESE 11.5 mph - N/A   Mostly Cloudy
5:00 PM 79 °F - 71 °F 71% 29.98 in 11 mi NNE 5.8 mph - -   Mostly Cloudy
5:00 PM 78.8 °F - 71.6 °F 78% 29.98 in 6.2 mi NNE 5.8 mph - N/A   Mostly Cloudy
6:00 PM 80.6 °F 85.4 °F 73.4 °F 79% 29.98 in 6.2 mi ENE 5.8 mph - N/A   Mostly Cloudy
7:00 PM 77.0 °F - 73.4 °F 89% 29.98 in 6.2 mi Calm Calm - N/A   Mostly Cloudy
8:00 PM 78 °F - 72 °F 77% 30.00 in 11 mi Calm Calm - -   Haze
8:00 PM 78.8 °F - 71.6 °F 78% 29.98 in 6.2 mi Calm Calm - N/A   Mostly Cloudy
9:00 PM 78.8 °F - 73.4 °F 83% 30.01 in 6.2 mi Calm Calm - N/A   Mostly Cloudy
10:00 PM 77.0 °F - 73.4 °F 89% 30.01 in 6.2 mi Calm Calm - N/A   Scattered Clouds
11:00 PM 78 °F - 72 °F 78% 30.01 in 11 mi Calm Calm - -   Scattered Clouds
11:00 PM 78.8 °F - 71.6 °F 78% 30.01 in 6.2 mi Calm Calm - N/A   Mostly Cloudy